TimeMST,TemperatureF,Dew PointF,Humidity,Sea Level PressureIn,VisibilityMPH,Wind Direction,Wind SpeedMPH,Gust SpeedMPH,PrecipitationIn,Events,Conditions,WindDirDegrees,DateUTC
12:15 AM,26.6,24.8,93,29.84,10.0,North,9.2,-,N/A,,Overcast,10,2012-12-07 07:15:00
12:35 AM,26.6,24.8,93,29.85,5.0,North,8.1,-,N/A,,Overcast,10,2012-12-07 07:35:00
12:55 AM,26.6,24.8,93,29.84,1.0,North,6.9,-,N/A,,Overcast,360,2012-12-07 07:55:00
1:15 AM,26.6,24.8,93,29.84,5.0,North,4.6,-,N/A,,Overcast,360,2012-12-07 08:15:00
1:35 AM,26.6,24.8,93,29.85,10.0,North,5.8,-,N/A,,Overcast,360,2012-12-07 08:35:00
1:55 AM,26.6,24.8,93,29.85,10.0,North,4.6,-,N/A,,Overcast,350,2012-12-07 08:55:00
2:15 AM,24.8,24.8,100,29.86,10.0,Calm,Calm,-,N/A,,Overcast,0,2012-12-07 09:15:00
2:35 AM,24.8,24.8,100,29.86,4.0,Calm,Calm,-,N/A,,Overcast,0,2012-12-07 09:35:00
2:55 AM,24.8,24.8,100,29.86,2.5,Calm,Calm,-,N/A,,Overcast,0,2012-12-07 09:55:00
3:15 AM,24.8,23.0,93,29.86,10.0,Calm,Calm,-,N/A,,Overcast,0,2012-12-07 10:15:00
3:35 AM,23.0,23.0,100,29.86,10.0,South,5.8,-,N/A,,Mostly Cloudy,190,2012-12-07 10:35:00
3:55 AM,21.2,21.2,100,29.86,10.0,SSW,5.8,-,N/A,,Mostly Cloudy,200,2012-12-07 10:55:00
4:15 AM,19.4,19.4,100,29.84,10.0,South,3.5,-,N/A,,Scattered Clouds,170,2012-12-07 11:15:00
4:35 AM,19.4,17.6,93,29.85,10.0,South,5.8,-,N/A,,Scattered Clouds,170,2012-12-07 11:35:00
4:55 AM,17.6,15.8,93,29.84,10.0,South,9.2,-,N/A,,Partly Cloudy,180,2012-12-07 11:55:00
5:15 AM,17.6,15.8,93,29.85,10.0,South,5.8,-,N/A,,Clear,180,2012-12-07 12:15:00
5:35 AM,17.6,15.8,93,29.85,10.0,SSE,4.6,-,N/A,,Clear,160,2012-12-07 12:35:00
5:55 AM,15.8,14.0,93,29.85,10.0,SSW,5.8,-,N/A,,Partly Cloudy,210,2012-12-07 12:55:00
6:15 AM,19.4,17.6,93,29.85,10.0,SW,6.9,-,N/A,,Clear,230,2012-12-07 13:15:00
6:35 AM,17.6,17.6,100,29.84,10.0,South,6.9,-,N/A,,Clear,190,2012-12-07 13:35:00
6:56 AM,17.6,15.8,93,29.84,10.0,SSE,5.8,-,N/A,,Clear,150,2012-12-07 13:56:00
7:15 AM,19.4,19.4,100,29.85,10.0,Calm,Calm,-,N/A,,Clear,0,2012-12-07 14:15:00
7:35 AM,19.4,17.6,93,29.85,10.0,SSE,5.8,-,N/A,,Clear,150,2012-12-07 14:35:00
8:15 AM,21.2,17.6,86,29.86,10.0,South,8.1,-,N/A,,Clear,170,2012-12-07 15:15:00
8:35 AM,24.8,19.4,80,29.87,10.0,WSW,4.6,-,N/A,,Clear,240,2012-12-07 15:35:00
8:55 AM,24.8,19.4,80,29.87,10.0,Calm,Calm,-,N/A,,Scattered Clouds,0,2012-12-07 15:55:00
9:15 AM,21.2,17.6,86,29.87,10.0,Calm,Calm,-,N/A,,Scattered Clouds,0,2012-12-07 16:15:00
9:35 AM,30.2,19.4,64,29.88,10.0,West,5.8,-,N/A,,Partly Cloudy,270,2012-12-07 16:35:00
9:55 AM,30.2,17.6,60,29.88,10.0,WSW,5.8,-,N/A,,Clear,240,2012-12-07 16:55:00
10:35 AM,32.0,17.6,55,29.89,10.0,WSW,4.6,-,N/A,,Clear,250,2012-12-07 17:35:00
10:55 AM,33.8,17.6,52,29.88,10.0,Calm,Calm,-,N/A,,Clear,0,2012-12-07 17:55:00
11:15 AM,35.6,17.6,48,29.88,10.0,WSW,3.5,-,N/A,,Partly Cloudy,250,2012-12-07 18:15:00
11:35 AM,33.8,15.8,48,29.87,10.0,West,8.1,-,N/A,,Partly Cloudy,270,2012-12-07 18:35:00
11:55 AM,33.8,15.8,48,29.87,10.0,WSW,9.2,19.6,N/A,,Partly Cloudy,250,2012-12-07 18:55:00
12:15 PM,33.8,15.8,48,29.87,10.0,WSW,10.4,-,N/A,,Clear,250,2012-12-07 19:15:00
12:35 PM,33.8,14.0,44,29.86,10.0,WSW,11.5,17.3,N/A,,Clear,250,2012-12-07 19:35:00
12:55 PM,33.8,12.2,41,29.85,10.0,WSW,11.5,19.6,N/A,,Clear,250,2012-12-07 19:55:00
1:55 PM,33.8,14.0,44,29.85,10.0,West,10.4,21.9,N/A,,Clear,260,2012-12-07 20:55:00
2:15 PM,33.8,12.2,41,29.85,10.0,West,11.5,23.0,N/A,,Clear,260,2012-12-07 21:15:00
2:35 PM,33.8,14.0,44,29.84,10.0,West,10.4,19.6,N/A,,Clear,280,2012-12-07 21:35:00
3:15 PM,33.8,12.2,41,29.84,10.0,West,9.2,16.1,N/A,,Clear,260,2012-12-07 22:15:00
3:35 PM,32.0,12.2,44,29.84,10.0,West,9.2,17.3,N/A,,Clear,280,2012-12-07 22:35:00
3:55 PM,30.2,14.0,51,29.83,10.0,West,10.4,16.1,N/A,,Clear,260,2012-12-07 22:55:00
4:15 PM,30.2,14.0,51,29.83,10.0,West,12.7,19.6,N/A,,Clear,260,2012-12-07 23:15:00
4:35 PM,30.2,15.8,55,29.82,10.0,West,10.4,19.6,N/A,,Clear,260,2012-12-07 23:35:00
4:55 PM,30.2,15.8,55,29.82,10.0,West,6.9,18.4,N/A,,Clear,260,2012-12-07 23:55:00
5:15 PM,30.2,14.0,51,29.82,10.0,WSW,4.6,-,N/A,,Clear,250,2012-12-08 00:15:00
5:35 PM,30.2,15.8,55,29.80,10.0,WSW,10.4,23.0,N/A,,Clear,250,2012-12-08 00:35:00
5:55 PM,30.2,15.8,55,29.80,10.0,West,6.9,-,N/A,,Clear,260,2012-12-08 00:55:00
6:15 PM,30.2,15.8,55,29.80,10.0,WSW,6.9,-,N/A,,Clear,250,2012-12-08 01:15:00
6:35 PM,30.2,15.8,55,29.79,10.0,West,6.9,-,N/A,,Clear,260,2012-12-08 01:35:00
7:35 PM,26.6,17.6,69,29.74,10.0,ESE,20.7,27.6,N/A,,Clear,120,2012-12-08 02:35:00
7:55 PM,24.8,17.6,74,29.74,10.0,ESE,15.0,20.7,N/A,,Clear,120,2012-12-08 02:55:00
8:15 PM,28.4,15.8,59,29.73,10.0,ESE,11.5,16.1,N/A,,Clear,110,2012-12-08 03:15:00
8:35 PM,28.4,15.8,59,29.73,10.0,East,11.5,-,N/A,,Clear,100,2012-12-08 03:35:00
8:55 PM,28.4,17.6,64,29.72,10.0,East,10.4,18.4,N/A,,Clear,100,2012-12-08 03:55:00
9:15 PM,26.6,17.6,69,29.70,10.0,East,5.8,17.3,N/A,,Clear,100,2012-12-08 04:15:00
9:35 PM,28.4,17.6,64,29.69,10.0,ESE,17.3,20.7,N/A,,Clear,110,2012-12-08 04:35:00
10:15 PM,28.4,19.4,69,29.68,10.0,ESE,13.8,21.9,N/A,,Clear,110,2012-12-08 05:15:00
10:35 PM,28.4,17.6,64,29.67,10.0,East,15.0,-,N/A,,Clear,100,2012-12-08 05:35:00
10:55 PM,30.2,19.4,64,29.67,10.0,ESE,12.7,16.1,N/A,,Clear,120,2012-12-08 05:55:00
11:35 PM,30.2,17.6,60,29.66,10.0,ENE,4.6,-,N/A,,Clear,70,2012-12-08 06:35:00
11:55 PM,28.4,17.6,64,29.65,10.0,WSW,8.1,-,N/A,,Clear,240,2012-12-08 06:55:00